^^
Saratoga-Weather Station Historical Data
Daily Summary for June 15, 2021 Units:  Metric    English   Both
Daily Weekly Monthly Yearly Custom
  High: Low: Average:
Temperature: 29.4 °C 14.1 °C 20.4 °C
Dew Point: 16.6 °C 12.3 °C 14 °C
Humidity: 90% 41% 69%
Wind Speed: 6.4km/h 0km/h 1.1km/h
Wind Gust: 11.3km/h - -
Wind- - SSE
Pressure: 1018.0 hPa 1016.6 hPa -
Precipitation: 0.0 mm    
Historical Graphs
 
 
Tabular Data for June 15, 2021
Time Temperature Dew Point Pressure Wind Wind Speed Wind Gust Humidity Rainfall Rate (Hourly) solar
00:00 19.4 °C 13.6 °C 1016.9 hPa SSW 1.4 km/h 1.6 km/h 69% 0.0 mm 0 W/m2
00:05 19.4 °C 13.3 °C 1016.9 hPa Calm     68% 0.0 mm 0 W/m2
00:10 19.4 °C 13.6 °C 1016.9 hPa SSW 1.4 km/h 1.6 km/h 69% 0.0 mm 0 W/m2
00:15 19.3 °C 13.5 °C 1016.9 hPa Calm   1.6 km/h 69% 0.0 mm 0 W/m2
00:20 19.3 °C 13.5 °C 1016.9 hPa Calm     69% 0.0 mm 0 W/m2
00:25 19.2 °C 13.4 °C 1016.9 hPa Calm     69% 0.0 mm 0 W/m2
00:30 19.1 °C 13.5 °C 1016.9 hPa Calm   1.6 km/h 70% 0.0 mm 0 W/m2
00:35 19.2 °C 13.6 °C 1016.9 hPa Calm     70% 0.0 mm 0 W/m2
00:40 19.1 °C 13.5 °C 1016.9 hPa Calm   1.6 km/h 70% 0.0 mm 0 W/m2
00:45 18.9 °C 13.5 °C 1016.9 hPa Calm     71% 0.0 mm 0 W/m2
00:50 18.8 °C 13.4 °C 1016.9 hPa Calm     71% 0.0 mm 0 W/m2
00:55 18.6 °C 13.5 °C 1016.9 hPa Calm     72% 0.0 mm 0 W/m2
01:00 18.4 °C 13.5 °C 1016.9 hPa Calm     73% 0.0 mm 0 W/m2
01:05 18.3 °C 13.4 °C 1016.9 hPa Calm     73% 0.0 mm 0 W/m2
01:10 18.2 °C 13.3 °C 1016.9 hPa Calm     73% 0.0 mm 0 W/m2
01:15 18 °C 13.1 °C 1016.9 hPa Calm     73% 0.0 mm 0 W/m2
01:20 17.9 °C 13.2 °C 1016.9 hPa SSW 1.4 km/h 1.6 km/h 74% 0.0 mm 0 W/m2
01:25 17.8 °C 13.1 °C 1016.9 hPa SSW 3.2 km/h 3.2 km/h 74% 0.0 mm 0 W/m2
01:30 17.7 °C 13.2 °C 1016.9 hPa SSW 1.4 km/h 1.6 km/h 75% 0.0 mm 0 W/m2
01:35 17.6 °C 13.1 °C 1016.9 hPa Calm   1.6 km/h 75% 0.0 mm 0 W/m2
01:40 17.5 °C 12.8 °C 1016.9 hPa Calm     74% 0.0 mm 0 W/m2
01:45 17.4 °C 12.9 °C 1016.9 hPa Calm   1.6 km/h 75% 0.0 mm 0 W/m2
01:50 17.3 °C 12.8 °C 1016.9 hPa Calm     75% 0.0 mm 0 W/m2
01:55 17.3 °C 12.8 °C 1016.9 hPa Calm     75% 0.0 mm 0 W/m2
02:00 17.3 °C 12.8 °C 1016.9 hPa Calm     75% 0.0 mm 0 W/m2
02:05 17.2 °C 12.7 °C 1016.9 hPa Calm     75% 0.0 mm 0 W/m2
02:10 17.2 °C 12.7 °C 1016.9 hPa Calm     75% 0.0 mm 0 W/m2
02:15 17.1 °C 12.8 °C 1016.9 hPa Calm     76% 0.0 mm 0 W/m2
02:20 17 °C 12.7 °C 1016.9 hPa Calm     76% 0.0 mm 0 W/m2
02:25 16.9 °C 12.6 °C 1016.9 hPa Calm   3.2 km/h 76% 0.0 mm 0 W/m2
02:30 16.8 °C 12.5 °C 1016.9 hPa Calm     76% 0.0 mm 0 W/m2
02:35 16.7 °C 12.6 °C 1016.9 hPa Calm   3.2 km/h 77% 0.0 mm 0 W/m2
02:40 16.6 °C 12.6 °C 1016.9 hPa Calm     77% 0.0 mm 0 W/m2
02:45 16.5 °C 12.5 °C 1016.9 hPa Calm     77% 0.0 mm 0 W/m2
02:50 16.4 °C 12.6 °C 1016.9 hPa Calm     78% 0.0 mm 0 W/m2
02:55 16.4 °C 12.6 °C 1016.9 hPa SSW 1.4 km/h 1.6 km/h 78% 0.0 mm 0 W/m2
03:00 16.3 °C 12.5 °C 1016.9 hPa Calm     78% 0.0 mm 0 W/m2
03:05 16.3 °C 12.7 °C 1016.9 hPa Calm     79% 0.0 mm 0 W/m2
03:10 16.2 °C 12.6 °C 1016.9 hPa Calm     79% 0.0 mm 0 W/m2
03:15 16.1 °C 12.5 °C 1016.9 hPa Calm     79% 0.0 mm 0 W/m2
03:20 16 °C 12.6 °C 1016.9 hPa Calm     80% 0.0 mm 0 W/m2
03:25 15.9 °C 12.5 °C 1016.9 hPa Calm     80% 0.0 mm 0 W/m2
03:30 15.8 °C 12.5 °C 1016.9 hPa Calm     81% 0.0 mm 0 W/m2
03:35 15.7 °C 12.6 °C 1016.9 hPa Calm     82% 0.0 mm 0 W/m2
03:40 15.6 °C 12.5 °C 1016.9 hPa Calm     82% 0.0 mm 0 W/m2
03:45 15.6 °C 12.7 °C 1016.9 hPa Calm     83% 0.0 mm 0 W/m2
03:50 15.5 °C 12.6 °C 1016.9 hPa Calm     83% 0.0 mm 0 W/m2
03:55 15.4 °C 12.7 °C 1016.6 hPa Calm     84% 0.0 mm 0 W/m2
04:01 15.4 °C 12.7 °C 1016.6 hPa Calm     84% 0.0 mm 0 W/m2
04:06 15.3 °C 12.6 °C 1016.6 hPa Calm     84% 0.0 mm 0 W/m2
04:11 15.2 °C 12.5 °C 1016.6 hPa Calm     84% 0.0 mm 0 W/m2
04:16 15.2 °C 12.7 °C 1016.6 hPa Calm     85% 0.0 mm 0 W/m2
04:21 15.1 °C 12.4 °C 1016.6 hPa Calm     84% 0.0 mm 0 W/m2
04:26 15 °C 12.5 °C 1016.6 hPa Calm     85% 0.0 mm 0 W/m2
04:31 14.9 °C 12.4 °C 1016.6 hPa Calm     85% 0.0 mm 0 W/m2
04:36 14.9 °C 12.6 °C 1016.6 hPa Calm     86% 0.0 mm 0 W/m2
04:41 14.8 °C 12.5 °C 1016.6 hPa Calm     86% 0.0 mm 0 W/m2
04:51 14.7 °C 12.6 °C 1016.6 hPa Calm     87% 0.0 mm 0 W/m2
04:56 14.7 °C 12.6 °C 1016.6 hPa Calm     87% 0.0 mm 0 W/m2
05:01 14.6 °C 12.6 °C 1016.6 hPa Calm     88% 0.0 mm 0 W/m2
05:06 14.6 °C 12.5 °C 1016.6 hPa Calm     87% 0.0 mm 0 W/m2
05:11 14.5 °C 12.5 °C 1016.6 hPa Calm     88% 0.0 mm 0 W/m2
05:16 14.4 °C 12.4 °C 1016.6 hPa Calm     88% 0.0 mm 0 W/m2
05:21 14.4 °C 12.4 °C 1016.6 hPa Calm     88% 0.0 mm 0 W/m2
05:26 14.3 °C 12.3 °C 1016.6 hPa Calm     88% 0.0 mm 0 W/m2
05:31 14.3 °C 12.3 °C 1016.6 hPa Calm     88% 0.0 mm 0 W/m2
05:36 14.3 °C 12.3 °C 1016.6 hPa Calm     88% 0.0 mm 0 W/m2
05:41 14.2 °C 12.4 °C 1016.6 hPa Calm     89% 0.0 mm 5 W/m2
05:46 14.2 °C 12.4 °C 1016.6 hPa Calm     89% 0.0 mm 7 W/m2
05:51 14.2 °C 12.4 °C 1016.6 hPa Calm     89% 0.0 mm 11 W/m2
05:56 14.2 °C 12.4 °C 1016.6 hPa Calm     89% 0.0 mm 12 W/m2
06:01 14.1 °C 12.3 °C 1016.9 hPa Calm     89% 0.0 mm 14 W/m2
06:06 14.1 °C 12.5 °C 1016.9 hPa Calm     90% 0.0 mm 14 W/m2
06:11 14.1 °C 12.5 °C 1016.9 hPa Calm     90% 0.0 mm 16 W/m2
06:16 14.2 °C 12.6 °C 1016.9 hPa Calm     90% 0.0 mm 21 W/m2
06:21 14.3 °C 12.7 °C 1016.9 hPa Calm     90% 0.0 mm 21 W/m2
06:26 14.4 °C 12.8 °C 1016.9 hPa Calm     90% 0.0 mm 23 W/m2
06:31 14.5 °C 12.7 °C 1016.9 hPa Calm     89% 0.0 mm 25 W/m2
06:36 14.6 °C 12.8 °C 1016.9 hPa Calm     89% 0.0 mm 30 W/m2
06:41 14.6 °C 12.8 °C 1017.3 hPa Calm     89% 0.0 mm 30 W/m2
06:46 14.7 °C 12.9 °C 1017.3 hPa Calm     89% 0.0 mm 37 W/m2
06:51 14.7 °C 12.9 °C 1017.3 hPa Calm     89% 0.0 mm 46 W/m2
06:56 14.8 °C 13 °C 1017.3 hPa Calm     89% 0.0 mm 49 W/m2
07:01 14.9 °C 13.1 °C 1017.3 hPa Calm     89% 0.0 mm 54 W/m2
07:06 15.1 °C 13.1 °C 1017.3 hPa SSW 1.4 km/h 1.6 km/h 88% 0.0 mm 56 W/m2
07:11 15.4 °C 13.4 °C 1017.6 hPa Calm     88% 0.0 mm 63 W/m2
07:16 15.7 °C 13.4 °C 1017.6 hPa SSW 1.4 km/h 3.2 km/h 86% 0.0 mm 67 W/m2
07:21 15.9 °C 13.6 °C 1017.6 hPa Calm     86% 0.0 mm 69 W/m2
07:26 16.2 °C 13.7 °C 1017.6 hPa SSW 1.4 km/h 3.2 km/h 85% 0.0 mm 77 W/m2
07:31 16.4 °C 13.7 °C 1017.3 hPa Calm   1.6 km/h 84% 0.0 mm 81 W/m2
07:36 16.7 °C 13.6 °C 1017.6 hPa Calm   3.2 km/h 82% 0.0 mm 113 W/m2
07:41 17.1 °C 13.8 °C 1017.6 hPa SW 1.4 km/h 1.6 km/h 81% 0.0 mm 216 W/m2
07:46 17.3 °C 14 °C 1017.6 hPa Calm   1.6 km/h 81% 0.0 mm 181 W/m2
07:51 17.7 °C 14.2 °C 1017.6 hPa Calm     80% 0.0 mm 162 W/m2
07:56 17.9 °C 14 °C 1017.6 hPa WNW 3.2 km/h 4.8 km/h 78% 0.0 mm 171 W/m2
08:01 18.2 °C 13.9 °C 1017.6 hPa WSW 4.7 km/h 4.8 km/h 76% 0.0 mm 230 W/m2
08:06 18.6 °C 14.3 °C 1017.6 hPa WSW 3.2 km/h 3.2 km/h 76% 0.0 mm 255 W/m2
08:11 18.8 °C 13.9 °C 1017.6 hPa Calm   3.2 km/h 73% 0.0 mm 223 W/m2
08:16 19.1 °C 14.1 °C 1017.6 hPa WNW 1.4 km/h 8 km/h 73% 0.0 mm 144 W/m2
08:21 19.4 °C 14.2 °C 1018.0 hPa WNW 3.2 km/h 6.4 km/h 72% 0.0 mm 83 W/m2
08:26 19.5 °C 14.1 °C 1018.0 hPa West 4.7 km/h 6.4 km/h 71% 0.0 mm 77 W/m2
08:31 19.5 °C 14.1 °C 1018.0 hPa NW 4.7 km/h 6.4 km/h 71% 0.0 mm 86 W/m2
08:36 19.7 °C 14.5 °C 1018.0 hPa WNW 1.4 km/h 3.2 km/h 72% 0.0 mm 90 W/m2
08:41 20.1 °C 14.9 °C 1018.0 hPa WNW 1.4 km/h 3.2 km/h 72% 0.0 mm 93 W/m2
08:46 20.3 °C 14.6 °C 1018.0 hPa NW 1.4 km/h 4.8 km/h 70% 0.0 mm 98 W/m2
08:51 20.8 °C 14.7 °C 1018.0 hPa Calm   4.8 km/h 68% 0.0 mm 100 W/m2
08:56 21.3 °C 14.9 °C 1018.0 hPa SSE 1.4 km/h 3.2 km/h 67% 0.0 mm 105 W/m2
09:01 21.7 °C 15.1 °C 1018.0 hPa ENE 1.4 km/h 3.2 km/h 66% 0.0 mm 111 W/m2
09:06 21.9 °C 15.5 °C 1018.0 hPa NNE 1.4 km/h 1.6 km/h 67% 0.0 mm 121 W/m2
09:11 22.1 °C 15 °C 1017.6 hPa East 1.4 km/h 3.2 km/h 64% 0.0 mm 181 W/m2
09:17 22.1 °C 15 °C 1018.0 hPa Calm   1.6 km/h 64% 0.0 mm 325 W/m2
09:22 22.1 °C 15.2 °C 1017.6 hPa Calm   3.2 km/h 65% 0.0 mm 540 W/m2
09:27 22.2 °C 15.5 °C 1017.6 hPa SE 3.2 km/h 4.8 km/h 66% 0.0 mm 536 W/m2
09:32 22.6 °C 15.4 °C 1018.0 hPa East 1.4 km/h 4.8 km/h 64% 0.0 mm 575 W/m2
09:37 22.9 °C 15.5 °C 1017.6 hPa ESE 6.4 km/h 6.4 km/h 63% 0.0 mm 388 W/m2
09:42 22.9 °C 15.2 °C 1017.6 hPa Calm   6.4 km/h 62% 0.0 mm 399 W/m2
09:47 23 °C 15.3 °C 1017.6 hPa NNE 1.4 km/h 6.4 km/h 62% 0.0 mm 482 W/m2
09:52 23.2 °C 15.3 °C 1017.6 hPa East 3.2 km/h 4.8 km/h 61% 0.0 mm 427 W/m2
09:57 23.2 °C 15.3 °C 1017.6 hPa ESE 3.2 km/h 3.2 km/h 61% 0.0 mm 506 W/m2
10:02 23.3 °C 15.6 °C 1017.6 hPa Calm   3.2 km/h 62% 0.0 mm 411 W/m2
10:07 23.3 °C 15.1 °C 1017.6 hPa East 1.4 km/h 6.4 km/h 60% 0.0 mm 383 W/m2
10:12 23.5 °C 15.3 °C 1017.6 hPa ENE 1.4 km/h 1.6 km/h 60% 0.0 mm 209 W/m2
10:17 23.7 °C 15.5 °C 1017.6 hPa Calm   3.2 km/h 60% 0.0 mm 264 W/m2
10:22 23.9 °C 15.4 °C 1017.6 hPa NE 3.2 km/h 6.4 km/h 59% 0.0 mm 566 W/m2
10:27 24.2 °C 15.4 °C 1017.6 hPa North 1.4 km/h 3.2 km/h 58% 0.0 mm 617 W/m2
10:32 24.4 °C 15.3 °C 1017.6 hPa ESE 1.4 km/h 6.4 km/h 57% 0.0 mm 613 W/m2
10:37 24.7 °C 15.3 °C 1017.3 hPa Calm   6.4 km/h 56% 0.0 mm 313 W/m2
10:42 24.8 °C 15.1 °C 1017.6 hPa NE 1.4 km/h 4.8 km/h 55% 0.0 mm 564 W/m2
10:47 25.1 °C 14.6 °C 1017.6 hPa NE 3.2 km/h 8 km/h 52% 0.0 mm 615 W/m2
10:52 25.2 °C 15.2 °C 1017.6 hPa Calm   4.8 km/h 54% 0.0 mm 631 W/m2
10:57 25.4 °C 15.1 °C 1017.3 hPa ESE 1.4 km/h 8 km/h 53% 0.0 mm 631 W/m2
11:02 25.4 °C 14.8 °C 1017.3 hPa NE 1.4 km/h 1.6 km/h 52% 0.0 mm 605 W/m2
11:07 25.6 °C 14.7 °C 1017.3 hPa South 1.4 km/h 3.2 km/h 51% 0.0 mm 703 W/m2
11:12 25.9 °C 15 °C 1017.3 hPa ENE 3.2 km/h 9.7 km/h 51% 0.0 mm 759 W/m2
11:17 26.2 °C 15.6 °C 1017.6 hPa ESE 1.4 km/h 4.8 km/h 52% 0.0 mm 698 W/m2
11:22 26.4 °C 15.1 °C 1017.3 hPa East 3.2 km/h 4.8 km/h 50% 0.0 mm 657 W/m2
11:27 26.7 °C 15.4 °C 1017.3 hPa Calm   4.8 km/h 50% 0.0 mm 668 W/m2
11:32 26.9 °C 16.2 °C 1017.3 hPa ESE 1.4 km/h 3.2 km/h 52% 0.0 mm 759 W/m2
11:37 27.2 °C 15.9 °C 1017.3 hPa Calm   6.4 km/h 50% 0.0 mm 703 W/m2
11:42 27.3 °C 16 °C 1017.3 hPa Calm   4.8 km/h 50% 0.0 mm 654 W/m2
11:47 27.4 °C 16.1 °C 1017.3 hPa Calm   1.6 km/h 50% 0.0 mm 610 W/m2
11:52 27.5 °C 15.5 °C 1017.3 hPa ENE 4.7 km/h 6.4 km/h 48% 0.0 mm 638 W/m2
11:57 27.3 °C 15.3 °C 1017.3 hPa SE 1.4 km/h 3.2 km/h 48% 0.0 mm 689 W/m2
12:02 27.3 °C 16.6 °C 1017.3 hPa ENE 3.2 km/h 6.4 km/h 52% 0.0 mm 777 W/m2
12:07 27.5 °C 16.1 °C 1017.3 hPa SSE 1.4 km/h 3.2 km/h 50% 0.0 mm 830 W/m2
12:12 27.6 °C 15.9 °C 1017.3 hPa ESE 1.4 km/h 6.4 km/h 49% 0.0 mm 810 W/m2
12:17 27.6 °C 16.2 °C 1017.3 hPa SE 4.7 km/h 4.8 km/h 50% 0.0 mm 847 W/m2
12:22 27.9 °C 15.9 °C 1017.3 hPa NE 1.4 km/h 4.8 km/h 48% 0.0 mm 851 W/m2
12:27 28.1 °C 16.4 °C 1017.3 hPa Calm   3.2 km/h 49% 0.0 mm 844 W/m2
12:32 28.3 °C 15.9 °C 1017.3 hPa SE 3.2 km/h 9.7 km/h 47% 0.0 mm 835 W/m2
12:37 28.3 °C 16.6 °C 1016.9 hPa NNW 3.2 km/h 3.2 km/h 49% 0.0 mm 861 W/m2
12:42 28.3 °C 15.6 °C 1017.3 hPa NNW 3.2 km/h 9.7 km/h 46% 0.0 mm 891 W/m2
12:47 28.3 °C 15.6 °C 1016.9 hPa East 3.2 km/h 8 km/h 46% 0.0 mm 895 W/m2
12:52 28.4 °C 16.3 °C 1017.3 hPa NNW 3.2 km/h 9.7 km/h 48% 0.0 mm 905 W/m2
12:57 28.3 °C 15.2 °C 1016.9 hPa West 1.4 km/h 3.2 km/h 45% 0.0 mm 905 W/m2
13:02 28.6 °C 15.8 °C 1016.9 hPa North 4.7 km/h 8 km/h 46% 0.0 mm 891 W/m2
13:07 28.8 °C 15.7 °C 1016.9 hPa North 3.2 km/h 9.7 km/h 45% 0.0 mm 893 W/m2
13:12 28.9 °C 16.1 °C 1016.9 hPa Calm   1.6 km/h 46% 0.0 mm 928 W/m2
13:17 29.2 °C 15.7 °C 1016.9 hPa West 1.4 km/h 9.7 km/h 44% 0.0 mm 881 W/m2
13:22 29.4 °C 16.2 °C 1016.9 hPa ESE 4.7 km/h 4.8 km/h 45% 0.0 mm 926 W/m2
13:27 29.3 °C 15.4 °C 1016.9 hPa East 4.7 km/h 8 km/h 43% 0.0 mm 932 W/m2
13:32 29.4 °C 15.5 °C 1016.9 hPa NNW 4.7 km/h 6.4 km/h 43% 0.0 mm 937 W/m2
13:37 29.3 °C 15.4 °C 1016.9 hPa ENE 4.7 km/h 4.8 km/h 43% 0.0 mm 816 W/m2
13:42 29.1 °C 14.9 °C 1016.9 hPa NNW 4.7 km/h 8 km/h 42% 0.0 mm 788 W/m2
13:47 29 °C 14.4 °C 1016.9 hPa ENE 1.4 km/h 8 km/h 41% 0.0 mm 911 W/m2
13:52 29 °C 14.8 °C 1016.9 hPa East 3.2 km/h 11.3 km/h 42% 0.0 mm 954 W/m2
13:57 29.2 °C 15 °C 1016.9 hPa East 1.4 km/h 6.4 km/h 42% 0.0 mm 974 W/m2
14:02 29.4 °C 14.8 °C 1016.9 hPa NE 1.4 km/h 9.7 km/h 41% 0.0 mm 896 W/m2
14:07 29.2 °C 15.7 °C 1016.6 hPa SE 1.4 km/h 4.8 km/h 44% 0.0 mm 666 W/m2
14:12 29.2 °C 15 °C 1016.6 hPa East 3.2 km/h 6.4 km/h 42% 0.0 mm 742 W/m2
14:17 29.2 °C 15 °C 1016.6 hPa East 3.2 km/h 4.8 km/h 42% 0.0 mm 715 W/m2
14:22 29.2 °C 15 °C 1016.6 hPa Calm   6.4 km/h 42% 0.0 mm 835 W/m2
14:27 29.2 °C 15.3 °C 1016.6 hPa Calm   4.8 km/h 43% 0.0 mm 875 W/m2
14:33 29.1 °C 14.5 °C 1016.6 hPa NW 3.2 km/h 3.2 km/h 41% 0.0 mm 795 W/m2
Juneau County Weather
Compliments of Weather Underground - 2 mb